#timestamp,LO_Frequency,Hit,StdDev 
1688115615.5,286046996.8,N
1688115635.3,286046996.5,N
1688115655.2,286046999.0,N
1688115675.9,286046998.8,N
1688115695.7,286046999.3,N
1688115715.6,286046999.3,N
1688115735.4,286046998.8,N
1688115755.2,286046998.9,N
1688115775.1,286046998.7,N
1688115776.0,286046998.7,N
1688115795.8,286046998.4,N
1688115815.7,286046998.3,N
1688115835.5,286046998.8,N
1688115855.3,286046998.6,N
1688115875.2,286046999.0,N
1688115895.0,286047001.2,N
1688115895.9,286047001.2,N
1688115915.8,286047001.0,N
1688115935.6,286047000.4,N
1688115955.4,286047000.3,N
1688115975.3,286047000.9,N
1688115995.1,286047000.9,N
1688116015.8,286046998.2,N
1688116065.7,286046998.7,E
1688116075.6,286046998.1,N
1688116095.5,286046999.8,P
1688116115.3,286047000.2,N
1688116135.1,286047000.3,N
1688116155.9,286047000.2,N
1688116175.7,286047000.2,N
1688116195.6,286047001.5,N
1688116215.4,286047002.3,N
1688116235.2,286047002.1,N
1688116255.1,286047001.6,N
1688116256.0,286047001.6,N
1688116275.8,286047001.8,N
1688116295.6,286047002.6,N
1688116315.5,286046999.8,N
1688116335.3,286047002.1,N
1688116355.2,286047002.0,N
1688116375.9,286047002.2,N
1688116395.7,286047002.1,N
1688116415.6,286047002.2,N
1688116435.4,286047002.1,N
1688116455.2,286047002.0,N
1688116475.1,286047002.0,N
1688116476.0,286047002.0,N
1688116495.8,286047001.4,N
1688116515.7,286047001.9,N
1688116535.5,286047001.4,N
1688116555.3,286047001.3,N
1688116575.2,286047001.8,N
1688116595.0,286047002.2,N
1688116595.9,286047002.2,N
1688116615.8,286047002.3,N
1688116635.6,286047001.7,N
1688116655.4,286047002.6,Y
1688116675.3,286047000.9,P
1688116695.1,286046999.9,N
1688116715.8,286047002.8,P
1688116735.7,286047002.4,N
1688116755.5,286047002.4,N
1688116775.4,286047002.8,N
1688116795.2,286047002.7,N
1688116815.0,286047000.1,N
1688116815.9,286047000.1,N
1688116835.8,286046999.7,N
1688116855.6,286047001.9,N
1688116875.4,286047002.0,N
1688116895.3,286047002.2,N
1688116915.1,286047002.5,N
1688116935.9,286047002.1,N
1688116955.7,286046999.8,N
1688116975.5,286047000.1,N
1688116995.4,286047002.7,N
1688117015.2,286046999.9,N
1688117035.0,286047002.0,N
1688117035.9,286047002.0,N
1688117055.8,286047002.2,N
1688117075.6,286047001.9,N
1688117095.5,286047002.3,N
1688117115.3,286047002.2,N
1688117135.1,286047002.6,N
1688117155.9,286047002.0,N
1688117175.7,286047002.7,N
1688117195.5,286047002.4,N
1688117215.4,286047002.0,N
1688117235.2,286047002.4,N
1688117255.1,286047000.2,N
1688117256.0,286047000.2,N
1688117275.8,286047002.5,N
1688117295.6,286047002.4,N
1688117315.5,286047002.2,N
1688117335.3,286047002.2,N
1688117355.1,286047001.7,N
1688117375.9,286047001.8,N
1688117395.7,286047001.9,N
1688117415.6,286047002.1,N
1688117435.4,286047001.9,N
1688117455.2,286047002.4,N
1688117475.1,286047002.4,N
1688117476.0,286047002.4,N
1688117495.8,286047002.6,Y
1688117515.7,286047001.2,P
1688117535.5,286047000.7,N
1688117555.3,286047001.0,N
1688117575.2,286047000.6,N
1688117595.0,286047000.4,N
1688117595.9,286047000.4,N
1688117615.7,286047000.1,N
1688117635.6,286047002.6,Y
1688117655.4,286047000.0,P
1688117675.3,286047000.1,N
1688117695.1,286046999.7,N
1688117696.0,286046999.7,N
1688117715.8,286047002.8,Y
1688117735.7,286046998.5,P
1688117755.5,286047000.5,N
1688117775.4,286047001.1,N
1688117795.2,286046998.1,N
1688117815.0,286047000.4,N
1688117815.9,286047000.4,N
1688117835.8,286047000.1,N
1688117855.6,286046999.8,N
1688117875.4,286047002.2,N
1688117895.3,286047000.0,N
1688117915.1,286047002.8,N
1688117935.9,286047000.3,N
1688117955.7,286047000.5,N
1688117975.5,286046999.9,N
1688117995.4,286047000.2,N
1688118015.2,286047000.5,N
1688118035.1,286047000.2,N
1688118036.0,286047000.2,N
1688118055.8,286047000.4,N
1688118075.6,286047000.1,N
1688118095.5,286046999.7,N
1688118115.3,286047002.7,N
1688118135.1,286047000.4,N
1688118155.9,286047000.4,N
1688118175.7,286047002.7,N
1688118195.6,286047002.3,N
1688118215.4,286047002.6,N
1688118235.2,286047000.0,N
1688118255.1,286047002.3,N
1688118256.0,286047002.3,N
1688118275.8,286047002.7,N
1688118295.6,286047000.2,N
1688118315.5,286047002.7,N
1688118335.3,286047002.4,N
1688118355.2,286047002.4,N
1688118375.9,286047002.3,N
1688118395.7,286047001.9,N
1688118415.6,286047002.3,N
1688118435.4,286047001.5,N
1688118455.2,286047002.3,N
1688118475.1,286047002.3,N
1688118476.0,286047002.3,N
1688118495.8,286047000.1,N
1688118515.7,286047002.3,N
1688118535.5,286047002.6,N
1688118555.3,286047001.5,N
1688118575.2,286047001.5,N
1688118595.0,286047001.9,N
1688118595.9,286047001.9,N
1688118615.7,286047001.7,N
1688118635.6,286047004.1,Y
1688118655.4,286047002.8,P
1688118675.3,286047002.4,P
1688118695.1,286047000.4,N
1688118715.9,286047000.2,N
1688118735.7,286046999.7,N
1688118755.5,286047000.2,N
1688118775.4,286047000.0,N
1688118795.2,286047000.7,N
1688118815.0,286047000.2,N
1688118815.9,286047000.2,N
1688118835.8,286047000.3,N
1688118855.6,286046999.9,N
1688118875.5,286047000.2,N
1688118895.3,286047000.0,N
1688118915.1,286047000.0,N
1688118935.9,286046999.8,N
1688118955.7,286047000.6,N
1688118975.6,286047000.5,N
1688118995.4,286047001.0,N
1688119015.2,286047000.8,N
1688119035.1,286047000.9,N
1688119036.0,286047000.9,N
1688119055.8,286047000.7,N
1688119075.6,286047000.5,N
1688119095.5,286047000.0,N
1688119115.3,286047000.5,N
1688119135.2,286047000.1,N
1688119155.9,286047002.4,Y
1688119175.7,286047000.8,P
1688119195.6,286047000.1,N
